Miscellaneous Local Product
Issued by NWS North Platte, NE

Home | Current Version | Previous Version | Graphics & Text | Print | Product List | Glossary On
Versions: 1 2 3 4 5 6 7 8 9 10 11 12 13 14 15 16 17 18 19 20 21 22 23 24 25 26 27 28 29 30 31 32 33 34 35 36 37 38 39 40 41 42 43 44 45 46 47 48 49 50
290
AXUS43 KLBF 260110
MISLBF


WESTERN AND NORTH CENTRAL NEBRASKA HOURLY WEATHER ROUNDUP
NATIONAL WEATHER SERVICE NORTH PLATTE NE
800 PM CDT THU MAY 25 2017

NOTE: "FAIR" INDICATES FEW OR NO CLOUDS BELOW 12,000 FEET WITH NO
SIGNIFICANT WEATHER AND/OR OBSTRUCTIONS TO VISIBILITY.

NOTE: STATIONS NOT REPORTING VARIABLES SUCH AS SKY/WEATHER OR
PRESSURE ARE PROVIDED BY RAWS AND APRS NETWORKS AND ARE NOT UNDER
NATIONAL WEATHER SERVICE QUALITY CONTROL.

...OBSERVATIONS IN AND NEAR THE EASTERN PANHANDLE OF NEBRASKA...

CITY           SKY/WX    TMP DP  RH WIND       PRES   REMARKS
PINE RIDGE     MOSUNNY   67  38  34 W8        29.64R
GORDON         CLOUDY    69  46  43 NW3       29.64R
CHADRON        MOSUNNY   64  37  36 NW8       29.65R
ALLIANCE       CLOUDY    62  53  72 E5        29.66R
SIDNEY         CLOUDY    59  50  72 NW10      29.73R
CRESCENT LAKE    N/A     66  46  48 SW8         N/A
$$

...OBSERVATIONS IN NORTHERN NEBRASKA AND FAR SOUTHERN SOUTH DAKOTA...

CITY           SKY/WX    TMP DP  RH WIND       PRES   REMARKS
WINNER         FAIR      72  50  45 CALM      29.59R
VALENTINE      CLOUDY    69  45  41 S6        29.62R
THEDFORD       CLOUDY    68  52  56 N5        29.62F
AINSWORTH      CLOUDY    67  50  54 NW3       29.64R
O`NEILL        CLOUDY    69  54  59 S5        29.60R
ORD            CLOUDY    68  55  63 W3        29.57R
BROKEN BOW     CLOUDY    67  56  67 E9        29.56F
VALENTINE NWR    N/A     66  46  48 CALM        N/A
HALSEY           N/A     69  51  53 CALM        N/A
BUTTE            N/A     69  54  58 CALM        N/A
CHAMBERS         N/A     69  53  57 CALM        N/A
EWING            N/A     69  55  62 NW3         N/A
$$

...OBSERVATIONS IN SOUTHWEST NEBRASKA AND FAR NORTHEAST COLORADO...

CITY           SKY/WX    TMP DP  RH WIND       PRES   REMARKS
WRAY           DRIZZLE   61  52  72 SE10      29.64F
IMPERIAL       CLOUDY    60  52  74 S3        29.62F
OGALLALA       CLOUDY    62  58  87 CALM      29.63R
NORTH PLATTE   CLOUDY    64  55  72 NW3       29.60R
MCCOOK         CLOUDY    65  55  70 W21G30    29.64R
LEXINGTON      CLOUDY    69  57  66 NE3       29.56F
STAPLETON        N/A     66  57  74 CALM        N/A
GOTHENBURG       N/A     71  51  48 E5          N/A
CALLAWAY         N/A     66  53  63 E9          N/A
$$

...OBSERVATIONS IN CENTRAL LINCOLN COUNTY AREA...

CITY           SKY/WX    TMP DP  RH WIND       PRES   REMARKS
N.P. AIRPORT   CLOUDY    64  55  72 NW3       29.60R
N.P. DOWNTOWN    N/A     62  56  82 CALM        N/A
N.P. SOUTHEAST   N/A     62  55  78 CALM        N/A
N.P. HILLCREST   N/A     61  57  85 NW6         N/A
$$

...SOME OBSERVATIONS FROM AROUND THE REGION...

CITY           SKY/WX    TMP DP  RH WIND       PRES   REMARKS
DENVER         CLOUDY    64  43  46 N12       29.74R
LIMON          CLOUDY    58  47  66 NE6       29.69R THUNDER
ASPEN          CLOUDY    54  37  52 W6        29.85S
LARAMIE        CLOUDY    48  38  68 S5        29.80S
CASPER         SUNNY     57  31  37 N17G24    29.77R
CHEYENNE       LGT RAIN  47  41  80 W14       29.79R
SCOTTSBLUFF    CLOUDY    62  48  60 E7        29.69R
GRAND ISLAND   CLOUDY    72  57  59 SE3       29.58R
OMAHA          MOCLDY    74  52  46 S12       29.57R
SIOUX FALLS    PTCLDY    69  53  56 S9        29.57R
PIERRE         SUNNY     73  33  23 W7        29.54R
RAPID CITY     CLOUDY    60  39  45 N26G38    29.66R
BISMARCK       MOSUNNY   67  43  41 W18       29.53R
KANSAS CITY    PTCLDY    72  55  55 SE13G23   29.58R
HILL CITY      TSTM      73  61  65 N8        29.59R
WICHITA        CLEAR     80  60  50 S15       29.48R
DODGE CITY     CLOUDY    84  57  39 VRB7G39   29.46R
OKLAHOMA CITY  CLOUDY    82  61  48 S14       29.51R
DALLAS         CLOUDY    88  60  38 S21G29    29.58S
AMARILLO       CLOUDY    90  24   9 W16G25    29.58S
$$




USA.gov is the U.S. government's official web portal to all federal, state and local government web resources and services.